星链-5255 (STARLINK-5255 )

导读

STARLINK-5255是美国太空探索技术公司(SpaceX)星链互联网卫星星座中的一颗卫星,于2022年10月28日发射入轨,属于星链项目大规模组网阶段的批量发射卫星,主要承担为全球提供低延迟、高速率宽带互联网服务的任务,运行在近地轨道,是星链星座构建全球卫星互联网覆盖的组成单元。

Basic Information
目录编号:
54208
目录名称:
STARLINK-5255
国际标识:
2022-141BD
轨道中心:
EARTH
卫星名称:
星链-5255
卫星全名:
星链-5255 (STARLINK-5255 )
卫星状态:
在轨 (已飞行1414 天)
发射日期:
2022-10-28 UTC
国别 :
美国 (US)
星等 :
--
This satellite is enrolled in the Space Conjunction Data Service (SCDS) and the current flight risk assessment level is: No High Risk
Orbit Information
数据来源 国际轨道数据 AOE轨道数据
星历时间 2026-09-09T14:20:07+0800
2天前
查看轨道信息
2026-09-06T22:00:00+0800
4天前
查看轨道信息
半长轴 6848.897km 6848.863km
偏心率 0.0002196 0.0001309
轨道倾角 53.161° 53.159°
近地点辐角 65.817° 84.417°
升交点赤经 215.202° 227.684°
平近点角 294.306° 246.194°
近地点 469.255km 469.829km
远地点 472.265km 471.623km
周期 94.014分钟 94.013分钟
每日圈数 15.316936 15.31705
Detailed Information
固有亮度:
5
最大亮度:
2.5
卫星平台:
Starlink v1.5
覆盖范围:
全球
运营商:
太空探索技术公司
运营商所在国:
美国
制造商(研发单位):
太空探索技术公司
制造商所在国:
美国
使用方式:
暂无
Satellite Introduction
星链(Starlink)计划是由太空探索技术公司(SpaceX)提出的一个巨型低轨卫星互联网星座项目,计划在2019年至2024年间在太空搭建由约1.2万颗卫星组成的“星链”网络,其中1584颗将部署在地球上空550千米处的近地轨道,并从2020年开始工作。该卫星仍在工作。
2D Orbit Map
3D Orbit Map
Orbit Altitude Analysis Chart
Orbit Inclination Analysis Chart
Orbit Comprehensive Analysis Chart
View Comprehensive Chart
Miss Distance Evolution Trend with All Objects
Collision Probability Evolution Trend with All Objects